Weather History for Pope Field Airport, NC

Change the Weather History Date:

Thursday, September 12, 2013

  Actual Average Record
Temperature  
Mean Temperature 80 °F -  
Max Temperature 92 °F 86 °F 97 °F (1983)
Min Temperature 70 °F 66 °F 47 °F (1993)
Cooling Degree Days 16    
Growing Degree Days 30 (Base 50)    
Moisture  
Dew Point 68 °F    
Average Humidity 66    
Maximum Humidity 90    
Minimum Humidity 42    
Precipitation  
Precipitation 0.00 in - - ()
Sea Level Pressure  
Sea Level Pressure 29.96 in    
Wind  
Wind Speed 7 mph (WSW)    
Max Wind Speed 14 mph    
Max Gust Speed 20 mph    
Visibility 10 miles    
Events      
Averages and records for this station are not official NWS values.
T = Trace of Precipitation, MM = Missing Value Source: NWS Daily Summary

Daily Weather History Graph

Daily Weather History Graph

Search for Another Location

Airport:

Trip Planner

Search our weather history database for the weather conditions in past years. The results will help you decide how hot, cold, wet, or windy it might be!

Date:

Astronomy

Sep. 12, 2013 Rise Set
Actual Time 6:56 AM EDT 7:27 PM EDT
Civil Twilight 6:31 AM EDT 7:52 PM EDT
Nautical Twilight 6:01 AM EDT 8:22 PM EDT
Astronomical Twilight 5:30 AM EDT 8:52 PM EDT
Moon 2:08 PM EDT (9/12) No Moon Set
Length of Visible Light 13h 21m
Length of Day
12h 30m
Waxing Crescent, 50% of the Moon is Illuminated
Sep 12
Waxing Crescent
Sep 12
First Quarter
Sep 19
Full
Sep 26
Last Quarter
Oct 4
New

Hourly Weather History & Observations

Time (EDT) Temp. Heat Index Dew Point Humidity Pressure Visibility Wind Dir Wind Speed Gust Speed Precip Events Conditions
12:58 AM 74.1 °F - 68.2 °F 82% 30.09 in 10.0 mi SW 5.8 mph - N/A   Clear
1:58 AM 73.8 °F - 68.4 °F 83% 30.09 in 10.0 mi SW 5.8 mph - N/A   Scattered Clouds
2:58 AM 72.3 °F - 68.0 °F 86% 30.06 in 10.0 mi West 4.6 mph - N/A   Partly Cloudy
3:58 AM 71.1 °F - 67.8 °F 89% 30.06 in 10.0 mi West 4.6 mph - N/A   Partly Cloudy
4:58 AM 72.3 °F - 68.7 °F 88% 30.06 in 10.0 mi WSW 6.9 mph - N/A   Overcast
5:58 AM 72.0 °F - 68.4 °F 88% 30.06 in 10.0 mi SW 5.8 mph - N/A   Mostly Cloudy
6:58 AM 70.7 °F - 67.6 °F 90% 30.04 in 10.0 mi WSW 5.8 mph - N/A   Clear
7:58 AM 72.3 °F - 67.8 °F 86% 30.05 in 10.0 mi WSW 5.8 mph - N/A   Clear
8:58 AM 75.9 °F - 68.0 °F 76% 30.04 in 10.0 mi West 6.9 mph - N/A   Clear
9:58 AM 81.7 °F 84.5 °F 68.0 °F 63% 30.04 in 10.0 mi West 6.9 mph - N/A   Clear
10:58 AM 86.4 °F 88.4 °F 65.5 °F 50% 30.01 in 10.0 mi West 10.4 mph - N/A   Partly Cloudy
11:58 AM 88.0 °F 90.3 °F 66.2 °F 48% 29.99 in 10.0 mi WSW 11.5 mph - N/A   Partly Cloudy
12:58 PM 90.0 °F 92.4 °F 66.2 °F 45% 29.97 in 10.0 mi West 10.4 mph - N/A   Partly Cloudy
1:58 PM 90.3 °F 92.2 °F 65.3 °F 43% 29.96 in 10.0 mi WSW 10.4 mph 19.6 mph N/A   Scattered Clouds
2:58 PM 91.6 °F 93.9 °F 65.5 °F 42% 29.91 in 10.0 mi SW 12.7 mph 19.6 mph N/A   Partly Cloudy
3:58 PM 90.9 °F 94.0 °F 66.6 °F 45% 29.88 in 10.0 mi SW 13.8 mph - N/A   Partly Cloudy
4:58 PM 90.7 °F 93.6 °F 66.9 °F 45% 29.84 in 10.0 mi SW 13.8 mph - N/A   Clear
5:58 PM 89.6 °F 92.2 °F 66.6 °F 46% 29.85 in 10.0 mi WSW 13.8 mph - N/A   Mostly Cloudy
6:58 PM 87.3 °F 90.9 °F 68.0 °F 53% 29.85 in 10.0 mi SSW 9.2 mph - N/A   Mostly Cloudy
7:58 PM 84.0 °F 87.3 °F 68.4 °F 59% 29.85 in 10.0 mi SW 8.1 mph - N/A   Partly Cloudy
8:58 PM 83.8 °F 87.3 °F 68.7 °F 60% 29.86 in 10.0 mi SSW 9.2 mph - N/A   Scattered Clouds
9:58 PM 80.8 °F 83.8 °F 69.1 °F 67% 29.86 in 10.0 mi WSW 10.4 mph - N/A   Partly Cloudy
10:58 PM 79.5 °F - 69.1 °F 70% 29.84 in 10.0 mi SW 6.9 mph - N/A   Scattered Clouds
11:58 PM 76.6 °F - 69.1 °F 77% 29.83 in 10.0 mi SW 4.6 mph - N/A   Clear